AirNav   Air Wisconsin Airman Trainee
 
 925 users online  

KSDM Brown Field Municipal Airport
San Diego, California, USA

GOING TO SAN DIEGO?


FAA INFORMATION EFFECTIVE 28 FEBRUARY 2019

Location

FAA Identifier: SDM
Lat/Long: 32-34-20.2000N / 116-58-48.6000W
32-34.336667N / 116-58.810000W
32.5722778 / -116.9801667
(estimated)
Elevation: 526.1 ft. / 160.4 m (surveyed)
Variation: 14E (1980)
From city: 13 miles SE of SAN DIEGO, CA
Time zone: UTC -8 (UTC -7 during Daylight Saving Time)
Zip code: 92154

Airport Operations

Airport use: Open to the public
Activation date: 03/1948
Control tower: yes
ARTCC: LOS ANGELES CENTER
FSS: SAN DIEGO FLIGHT SERVICE STATION
NOTAMs facility: SDM (NOTAM-D service available)
Attendance: 0900-1700
Pattern altitude: TPA: RWY 8L-26R 1000'AGL; 8R-26L 600'AGL.
Wind indicator: lighted
Segmented circle: yes
Lights: ACTVT REIL RWY 08L, PAPI RWY 08L & RWY 26R, HIRL RWY 08L/26R, AND MIRL RWY 08R/26L - CTAF.
Beacon: white-green (lighted land airport)
Operates sunset to sunrise.
International operations: customs landing rights airport

Airport Communications

CTAF: 128.25
UNICOM: 122.95
ATIS: 132.35
WX ASOS: 132.35 (619-661-8297)
BROWN GROUND: 124.4 [0800-2000]
BROWN TOWER: 128.25 225.4 [0800-2000]
SOCAL APPROACH: 124.35
SOCAL DEPARTURE: 125.15
CLEARANCE DELIVERY: 124.4
CHASR STAR: 124.35
CWARD DP: 119.6
PADRZ DP: 119.6
WX ASOS at NRS (7 nm W): PHONE 619-437-9890
WX ASOS at SAN (14 nm NW): PHONE 619-296-8934
WX AWOS-3P at SEE (15 nm N): 125.45 (619-449-1228)
WX ASOS at MYF (17 nm NW): 126.9 (858-576-4337)
  • FOR CLNC DEL WHEN ATCT CLSD CALL SOCAL APCH (800) 448-3724.

Nearby radio navigation aids

VOR radial/distance  VOR name  Freq  Var
PGYr167/2.3POGGI VORTAC109.8014E
TIJr311/2.3TIJUANA VOR/DME116.5014E
MZBr120/17.7MISSION BAY VORTAC117.8015E
JLIr195/39.5JULIAN VORTAC114.0015E

Airport Services

Fuel available: 100LL JET-A JET-A+
FOR FUEL AFT HRS CALL FBO'S AT (619) 671-9222; FEE FOR CALLOUT. MILITARY FUEL AVBL BY CALLING (619) 671-9222.
Parking: tiedowns
Airframe service: MAJOR
Powerplant service: MAJOR
Bottled oxygen: HIGH/LOW
Bulk oxygen: HIGH/LOW

Runway Information

Runway 8L/26R

Dimensions: 7972 x 150 ft. / 2430 x 46 m
Surface: asphalt/concrete, in good condition
Weight bearing capacity: 
Single wheel: 80.0
Double wheel: 110.0
Double tandem: 175.0
Runway edge lights: high intensity
RUNWAY 8L  RUNWAY 26R
Latitude: 32-34.427732N32-34.299302N
Longitude: 116-59.605682W116-58.060468W
Elevation: 526.1 ft.507.7 ft.
Gradient: 0.2%
Traffic pattern: leftright
Runway heading: 082 magnetic, 096 true262 magnetic, 276 true
Markings: nonprecision, in good conditionnonprecision, in good condition
Visual slope indicator: 4-light PAPI on left (3.00 degrees glide path)4-light PAPI on left (4.00 degrees glide path)
RWY 26R PAPI UNUSABLE BYD 3 NM.
Runway end identifier lights: yesyes
Touchdown point: yes, no lightsyes, no lights

Runway 8R/26L

Dimensions: 3185 x 75 ft. / 971 x 23 m
Surface: asphalt, in good condition
Weight bearing capacity: 
Single wheel: 14.0, OPERATOR PERMITS ONLY 12000 LBS.
Runway edge lights: medium intensity
Gradient: W
RUNWAY 8R  RUNWAY 26L
Latitude: 32-34.295277N32-34.243988N
Longitude: 116-59.060755W116-58.443450W
Elevation: 520.8 ft.506.8 ft.
Gradient: 0.4%0.4% UP
Traffic pattern: rightleft
Runway heading: 082 magnetic, 096 true262 magnetic, 276 true
Markings: basic, in good conditionbasic, in good condition
Touchdown point: yes, no lightsyes, no lights

Airport Ownership and Management from official FAA records

Ownership: Publicly-owned
Owner: CITY OF SAN DIEGO
1424 CONTINENTAL ST
SAN DIEGO, CA 92154
Phone 619-424-0455
Manager: ANDY SCHWARTZ
1424 CONTINENTAL ST
SAN DIEGO, CA 92154
Phone 619-424-0456

Airport Operational Statistics

Aircraft based on the field: 230
Single engine airplanes: 178
Multi engine airplanes: 27
Jet airplanes: 12
Helicopters: 13
    
Aircraft operations: avg 216/day *
52% local general aviation
42% transient general aviation
4% military
2% air taxi
* for 12-month period ending 30 September 2018

Additional Remarks

BE ALERT TO ARPT BDRY ONE MILE NORTH FM MEXICAN/USA INTL BORDER.
PARA JUMPING ON AIRPORT AND 3 MILES EAST.
BE ALERT TO HIGH TERRAIN 3,566 FT. MSL SIX MILES EAST OF AIRPORT.
BE ALERT WHEN DEPARTING ON RY 08L AT NIGHT DUE TO RISING TERRAIN TO THE EAST.
NOISE SENSITIVE AREAS APPROX 1 MILE WEST OF AIRPORT, 1/2 MILE NORTHWEST, AND 2 MILES NORTH.
TWY G WEST OF TWY B RESTRICTED TO AIRCRAFT WITH WINGSPANS OF 133 FT OR LESS.
AVOID DCT OVERFLIGHT OF PIO PICO ENERGY CENTER BLO 2000 FT AGL, 3 NM EAST OF AP.
NO ENGINE OPNS ON RAMPS EXCEPT AS NECESSARY FOR ARRIVALS/DEPARTURES.

Instrument Procedures

NOTE: All procedures below are presented as PDF files. If you need a reader for these files, you should download the free Adobe Reader.

NOT FOR NAVIGATION. Please procure official charts for flight.
FAA instrument procedures published for use from 28 February 2019 at 0901Z to 28 March 2019 at 0900Z.

 
STARs - Standard Terminal Arrivals
CHASR TWO (RNAV)   download (193KB)
 
IAPs - Instrument Approach Procedures
RNAV (GPS) RWY 08L **CHANGED**   download (288KB)
VOR OR GPS-A **CHANGED**   download (272KB)
NOTE: Special Alternate Minimums apply   download (30KB)
 
Departure Procedures
CWARD TWO (RNAV)   download (184KB)
PADRZ TWO (RNAV)   download (213KB)
NOTE: Special Take-Off Minimums/Departure Procedures apply   download (132KB)

Other nearby airports with instrument procedures:

KNRS - Imperial Beach Naval Outlying Field (Ream Field) (7 nm W)
KNZY - North Island Naval Air Station (Halsey Field) (14 nm NW)
KSAN - San Diego International Airport (14 nm NW)
KSEE - Gillespie Field Airport (15 nm N)
KMYF - Montgomery-Gibbs Executive Airport (17 nm NW)
KNKX - Miramar MCAS (Joe Foss Field) Airport (20 nm NW)
 
Loc | Ops | Rwys | IFR | FBO | Links
Com | Nav | Svcs | Stats | Notes

San Bernardino International Airport Authority
 
Area around KSDM (Brown Field Municipal Airport)
 
Road maps at: MapQuest Bing Google
 
Aerial photo
WARNING: Photo may not be current or correct
Aerial photo of KSDM (Brown Field Municipal Airport)
Photo courtesy of helihigh.com & Mark Robinson
Photo taken 21-Aug-2012
looking west.

Do you have a better or more recent aerial photo of Brown Field Municipal Airport that you would like to share? If so, please send us your photo.

 
Sectional chart

 
Airport diagram
CAUTION: Diagram may not be current
Diagram of KSDM (Brown Field Municipal Airport)
Download PDF
of official airport diagram from the FAA

 
Airport distance calculator
Flying to Brown Field Municipal Airport? Find the distance to fly.

From to KSDM

Sunrise and sunset
Times for 24-Mar-2019
 Local
(UTC-7)
 Zulu
(UTC)
Morning civil twilight06:2313:23
Sunrise06:4713:47
Sunset19:0102:01
Evening civil twilight19:2602:26

Current date and time
Zulu (UTC)  24-Mar-2019 22:05:18
Local (UTC-7)  24-Mar-2019 15:05:18
 
METAR
KSDM 242153Z 27009KT 10SM CLR 18/12 A3013 RMK AO2 SLP201 T01830117
MMTJ 
2nm S 
242152Z 28011KT 10SM BKN200 19/12 A3015 RMK 8/002 HZY
KNRS 
7nm W 
242156Z AUTO 29013KT 10SM CLR 18/12 A3015 RMK AO2 SLP209 T01830117
KSAN 
14nm NW 
242151Z 29010KT 10SM FEW025 BKN200 19/10 A3016 RMK AO2 SLP212 T01890100
KNZY 
14nm NW 
242152Z 29012KT 10SM FEW025 BKN200 22/11 A3014 RMK AO2 SLP205 T02220111
KSEE 
15nm N 
242147Z 30008KT 10SM SKC 21/11 A3012
KMYF 
17nm NW 
242153Z 30010KT 10SM CLR 19/11 A3014 RMK AO2 SLP203 T01890106
KNKX 
19nm NW 
242055Z 29008KT 10SM CLR 20/12 A3015 RMK AO2 SLP205 T02000122 58014 $
TAF
MMTJ 
2nm S 
241653Z 2418/2524 30008KT P6SM SCT020 SCT220 TX20/2420Z TN11/2513Z FM250400 33005KT 6SM HZ SKC BECMG 2509/2510 4SM HZ BKN010 TEMPO 2511/2515 2SM BR HZ BKN005 OVC010 FM251600 29006KT 5SM HZ SCT015 FM251900 29010KT P6SM SKC
KSAN 
14nm NW 
241726Z 2418/2524 VRB04KT P6SM FEW025 BKN200 FM241900 29010KT P6SM SKC FM250300 VRB05KT P6SM FEW020 FM251000 VRB04KT P6SM BKN010 FM251500 VRB04KT P6SM SCT010 FM251900 29011KT P6SM SKC
KNZY 
14nm NW 
2415/2515 VRB06KT 9999 SCT030 QNH3011INS FM242100 30010KT 9999 FEW010 FEW030 QNH3008INS FM250900 VRB06KT 9999 BKN010 BKN025 QNH3004INS T21/2423Z T14/2512Z FS30128
KNKX 
19nm NW 
2415/2515 VRB05KT 9999 FEW250 QNH3015INS BECMG 2418/2420 29007KT 9999 FEW250 QNH3010INS TEMPO 2421/2503 29009G15KT FM250330 VRB05KT 9999 SCT020 QNH3005INS TEMPO 2507/2513 BKN015 T18/2421Z T11/2514Z
NOTAMs
Click for the latest NOTAMs
NOTAMs are issued by the DoD/FAA and will open in a separate window not controlled by AirNav.

 

 
 

FBO, Fuel Providers, and Aircraft Ground Support

  
 Business Name 
 
 Contact 
 
 Services / Description 
 
Fuel Prices
 
Comments
  
 San Diego Jet Center
619-671-9222
toll-free 1-866-736-5382
[web site]
[email]
The only full service FBO at KSDM dedicated to providing excellent service at a competitive price.
 
U.S. Government Contract Fuel   U.S. Customs Service   AVTRIP   Hertz  
 
More info about San Diego Jet Center
Avfuel
100LL Jet A
FS $4.89 $4.19 
SS $4.39 --- 
 Updated 14-Mar-2019
 
   1 read write
First Flight 619-661-6522
[web site]
[email]
Aviation fuel, Oxygen service, Aircraft parking (ramp or tiedown), GPU / Power cart, Flight training, Aircraft rental, Aerial tours / aerial sightseeing, ...

More info about First Flight
EPIC
100LL Jet A
FS --- $3.59 
SS $4.32 --- 
GUARANTEED
 
   write
Alternatives at nearby airports
IMPORTANT: Note that the FBOs below are NOT at KSDM but at other nearby airports. Do not expect services from these FBOs to be available at KSDM.
Located at KSBD
Luxivair SBD
909-382-6068
[web site]
[email]

Like us on facebook Follow us on twitter
At KSBD (San Bernardino International Airport), 92 miles N

Aviation fuel, Aircraft ground handling, Oxygen service, Aircraft parking (ramp or tiedown), Hangars, Hangar leasing / sales, GPU / Power cart, ...
More info and photos of Luxivair SBD (KSBD)
Located at KSBD
EPIC
100LL Jet A
FS $4.95 $3.98 
SS $4.24 --- 
 Updated 22-Mar-2019
 
   13 read write
FS=Full service
SS=Self service
Update Fuel Prices
 

Aviation Businesses, Services, and Facilities

  
 Business Name 
 
 Contact 
 
 Services / Description 
 
Distance
 
Comments
  
 Duncan Aviation
818-298-7489
[web site]
[email]
Avionics sales and service

More info about Duncan Aviation
50 miles  
   write
 

Would you like to see your business listed on this page?

 If your business provides an interesting product or service to pilots, flight crews, aircraft, or users of the Brown Field Municipal Airport, you should consider listing it here.  To start the listing process, click on the button below
 
Add a business
 

Other Pages about Brown Field Municipal Airport

www.sandiego.gov/...
 
Update a link
 
Copyright © AirNav, LLC. All rights reserved. Privacy Policy  Contact